This is the latest recevied weather packets stored in our database for station/object KJ5PEC-13. If no packets are shown the sender has not sent any weather packets the latest 10 day(s).
| Time | Temp. | Humidity | Pressure | Rain* | Wind** | Luminosity | Snow |
|---|---|---|---|---|---|---|---|
| 1788536004 | 17.22° C | 37% | 1030.3 hPa | 0 mm | - | 471 W/m² | - |
| 1788535700 | 17.22° C | 38% | 1030.2 hPa | 0 mm | - | 486 W/m² | - |
| 1788535395 | 16.67° C | 38% | 1030.5 hPa | 0 mm | - | 466 W/m² | - |
| 1788535090 | 15.56° C | 41% | 1030.2 hPa | 0 mm | - | 447 W/m² | - |
| 1788534789 | 15° C | 42% | 1030.6 hPa | 0 mm | - | 431 W/m² | - |
| 1788534485 | 14.44° C | 43% | 1030.5 hPa | 0 mm | - | 412 W/m² | - |
| 1788534180 | 15° C | 43% | 1030.6 hPa | 0 mm | - | 392 W/m² | - |
| 1788533878 | 13.89° C | 45% | 1030.3 hPa | 0 mm | - | 372 W/m² | - |
| 1788533574 | 13.33° C | 45% | 1030.5 hPa | 0 mm | - | 353 W/m² | - |
| 1788533269 | 12.78° C | 48% | 1030.3 hPa | 0 mm | - | 333 W/m² | - |
| 1788532965 | 12.22° C | 49% | 1030.5 hPa | 0 mm | - | 314 W/m² | - |
| 1788532660 | 12.22° C | 51% | 1030.5 hPa | 0 mm | - | 294 W/m² | - |
| 1788532357 | 12.78° C | 49% | 1030.5 hPa | 0 mm | - | 274 W/m² | - |
| 1788532053 | 11.67° C | 49% | 1030.7 hPa | 0 mm | - | 254 W/m² | - |
| 1788531749 | 10.56° C | 52% | 1030.8 hPa | 0 mm | - | 235 W/m² | - |
| 1788531448 | 10° C | 55% | 1030.3 hPa | 0 mm | - | 217 W/m² | - |
| 1788531144 | 9.44° C | 56% | 1030.3 hPa | 0 mm | - | 199 W/m² | - |
| 1788530840 | 8.89° C | 59% | 1030.2 hPa | 0 mm | - | 183 W/m² | - |
| 1788530535 | 8.33° C | 60% | 1030.3 hPa | 0 mm | - | 167 W/m² | - |
| 1788530234 | 8.33° C | 58% | 1030.5 hPa | 0 mm | - | 151 W/m² | - |
| 1788529929 | 7.78° C | 61% | 1030.2 hPa | 0 mm | - | 136 W/m² | - |
| 1788529625 | 7.22° C | 62% | 1030.1 hPa | 0 mm | - | 122 W/m² | - |
| 1788529324 | 7.22° C | 62% | 1030.1 hPa | 0 mm | - | 108 W/m² | - |
| 1788529019 | 7.22° C | 61% | 1029.8 hPa | 0 mm | - | 96 W/m² | - |
| 1788528715 | 7.22° C | 63% | 1029.9 hPa | 0 mm | - | 84 W/m² | - |
* Rain latest hour (hover to see other rain measurements)
** Current wind speed in m/s (hover to see current wind gust speed)